| time (UTC) | temp C | wind direction | speed KPH | gust KPH | rain 1hr cm | rain 24hr cm | rain mn cm | humidity % | barometer mb |
| 20260507024502 | 5 | 259 | 0.0 | 0.0 | 0.00 | 0.00 | 0.00 | 96 | 1007.3 |
| 20260507023000 | 5 | 256 | 0.0 | 0.0 | 0.00 | 0.00 | 0.00 | 96 | 1007.1 |
| 20260507021501 | 5 | 258 | 0.0 | 0.0 | 0.00 | 0.00 | 0.00 | 96 | 1007.1 |
| 20260507020002 | 5 | 259 | 0.0 | 0.0 | 0.00 | 0.00 | 0.00 | 96 | 1007.1 |
| 20260507014501 | 5 | 258 | 0.0 | 0.0 | 0.00 | 0.00 | 0.00 | 95 | 1007.0 |
| 20260507013002 | 5 | 259 | 0.0 | 0.0 | 0.00 | 0.00 | 0.00 | 95 | 1006.8 |
| 20260507011502 | 5 | 247 | 0.0 | 0.0 | 0.00 | 0.00 | 0.00 | 95 | 1007.0 |
| 20260507010001 | 5 | 259 | 0.0 | 0.0 | 0.00 | 0.00 | 0.00 | 95 | 1006.9 |
| 20260507004501 | 6 | 258 | 0.0 | 0.0 | 0.00 | 0.00 | 0.00 | 94 | 1006.6 |
| 20260507003000 | 6 | 257 | 0.0 | 0.0 | 0.00 | 0.00 | 0.00 | 94 | 1006.4 |
| 20260507001502 | 6 | 256 | 0.0 | 0.0 | 0.00 | 0.00 | 0.00 | 94 | 1006.6 |
| 20260507000002 | 6 | 250 | 0.0 | 0.0 | 0.00 | 0.00 | 0.00 | 93 | 1006.6 |
| 20260506234501 | 6 | 257 | 0.0 | 0.0 | 0.00 | 0.00 | 0.00 | 92 | 1006.8 |
| 20260506233001 | 7 | 251 | 0.0 | 0.0 | 0.00 | 0.00 | 0.00 | 91 | 1006.8 |
| 20260506231500 | 7 | 254 | 0.0 | 0.0 | 0.00 | 0.00 | 0.00 | 91 | 1006.6 |
| 20260506230002 | 7 | 258 | 0.0 | 0.0 | 0.00 | 0.00 | 0.00 | 91 | 1006.8 |
| 20260506224502 | 7 | 253 | 0.0 | 0.0 | 0.00 | 0.00 | 0.00 | 90 | 1006.7 |
| 20260506223002 | 7 | 257 | 0.0 | 0.0 | 0.00 | 0.00 | 0.00 | 89 | 1006.4 |
| 20260506221500 | 7 | 254 | 0.0 | 0.0 | 0.00 | 0.00 | 0.00 | 88 | 1006.7 |
| 20260506220001 | 7 | 257 | 0.0 | 0.0 | 0.00 | 0.00 | 0.00 | 87 | 1006.5 |
| 20260506214502 | 7 | 253 | 0.0 | 0.0 | 0.00 | 0.00 | 0.00 | 86 | 1006.2 |
| 20260506204500 | 8 | 235 | 0.0 | 0.0 | 0.00 | 0.00 | 0.00 | 83 | 1006.2 |
| 20260506203002 | 10 | 247 | 0.0 | 0.0 | 0.00 | 0.00 | 0.00 | 82 | 1006.0 |
| 20260506201502 | 10 | 256 | 0.0 | 0.0 | 0.00 | 0.00 | 0.00 | 82 | 1005.9 |
| 20260506200003 | 10 | 246 | 0.0 | 0.0 | 0.00 | 0.00 | 0.00 | 81 | 1005.8 |
| 20260506194500 | 10 | 225 | 0.0 | 0.0 | 0.00 | 0.00 | 0.00 | 80 | 1005.7 |
| 20260506193002 | 11 | 259 | 0.0 | 0.0 | 0.00 | 0.00 | 0.00 | 81 | 1005.4 |
| 20260506191501 | 11 | 262 | 0.0 | 0.0 | 0.00 | 0.00 | 0.00 | 80 | 1005.4 |
| 20260506190000 | 11 | 264 | 0.0 | 0.0 | 0.00 | 0.00 | 0.00 | 80 | 1005.4 |
| 20260506184500 | 11 | 261 | 0.0 | 0.0 | 0.00 | 0.00 | 0.00 | 80 | 1005.2 |
| 20260506183001 | 11 | 269 | 0.0 | 0.0 | 0.00 | 0.00 | 0.00 | 80 | 1005.0 |
| 20260506181502 | 11 | 268 | 0.0 | 0.0 | 0.00 | 0.00 | 0.00 | 79 | 1004.9 |
| 20260506180003 | 11 | 265 | 0.0 | 0.0 | 0.00 | 0.00 | 0.00 | 79 | 1004.6 |
| 20260506174502 | 11 | 268 | 0.0 | 0.0 | 0.00 | 0.00 | 0.00 | 77 | 1004.5 |
| 20260506173000 | 11 | 274 | 0.0 | 0.0 | 0.00 | 0.00 | 0.00 | 77 | 1004.2 |
| 20260506171502 | 11 | 343 | 0.0 | 0.0 | 0.00 | 0.00 | 0.00 | 76 | 1004.2 |
| 20260506170001 | 12 | 260 | 0.0 | 0.0 | 0.00 | 0.00 | 0.00 | 77 | 1004.3 |
| 20260506164502 | 11 | 260 | 0.0 | 0.0 | 0.00 | 0.00 | 0.00 | 76 | 1004.3 |
| 20260506163002 | 12 | 160 | 0.0 | 0.0 | 0.00 | 0.00 | 0.00 | 77 | 1004.0 |
| 20260506161502 | 12 | 338 | 1.6 | 0.0 | 0.00 | 0.00 | 0.00 | 74 | 1004.3 |
| 20260506160000 | 12 | 249 | 0.0 | 0.0 | 0.00 | 0.00 | 0.00 | 75 | 1004.2 |
| 20260506154502 | 12 | 274 | 0.0 | 0.0 | 0.00 | 0.00 | 0.00 | 75 | 1004.0 |
| 20260506153001 | 12 | 257 | 0.0 | 0.0 | 0.00 | 0.00 | 0.00 | 77 | 1004.3 |
| 20260506151502 | 12 | 282 | 0.0 | 0.0 | 0.00 | 0.00 | 0.00 | 76 | 1004.1 |
| 20260506150002 | 11 | 21 | 1.6 | 0.0 | 0.00 | 0.00 | 0.00 | 76 | 1004.1 |
| 20260506144501 | 11 | 266 | 0.0 | 0.0 | 0.00 | 0.00 | 0.00 | 76 | 1003.7 |
| 20260506143000 | 12 | 248 | 3.2 | 0.0 | 0.00 | 0.00 | 0.00 | 73 | 1003.8 |
| 20260506141500 | 12 | 255 | 3.2 | 0.0 | 0.00 | 0.00 | 0.00 | 74 | 1003.9 |
| 20260506140001 | 12 | 41 | 4.8 | 0.0 | 0.00 | 0.00 | 0.00 | 74 | 1003.9 |
| 20260506134501 | 11 | 311 | 3.2 | 0.0 | 0.00 | 0.00 | 0.00 | 77 | 1003.9 |
| 20260506133000 | 12 | 317 | 1.6 | 0.0 | 0.00 | 0.00 | 0.00 | 77 | 1004.2 |
| 20260506121502 | 10 | 16 | 0.0 | 0.0 | 0.00 | 0.00 | 0.00 | 80 | 1003.9 |
| 20260506113000 | 10 | 146 | 1.6 | 0.0 | 0.00 | 0.00 | 0.00 | 78 | 1003.6 |
| 20260506111502 | 10 | 51 | 3.2 | 0.0 | 0.00 | 0.00 | 0.00 | 78 | 1003.5 |
| 20260506110002 | 10 | 4 | 1.6 | 0.0 | 0.00 | 0.00 | 0.00 | 78 | 1003.3 |
| 20260506104500 | 10 | 41 | 1.6 | 0.0 | 0.00 | 0.00 | 0.00 | 78 | 1003.6 |
| 20260506103001 | 10 | 1 | 3.2 | 0.0 | 0.00 | 0.00 | 0.00 | 77 | 1003.4 |
| 20260506101502 | 10 | 200 | 1.6 | 0.0 | 0.00 | 0.00 | 0.00 | 81 | 1003.3 |
| 20260506100000 | 10 | 260 | 0.0 | 0.0 | 0.00 | 0.00 | 0.00 | 82 | 1003.0 |
| 20260506094502 | 10 | 245 | 0.0 | 0.0 | 0.00 | 0.00 | 0.00 | 81 | 1003.0 |
| 20260506093000 | 10 | 242 | 0.0 | 0.0 | 0.00 | 0.00 | 0.00 | 82 | 1003.1 |
| 20260506091502 | 10 | 54 | 3.2 | 0.0 | 0.00 | 0.00 | 0.00 | 83 | 1003.0 |
| 20260506090002 | 10 | 22 | 0.0 | 0.0 | 0.00 | 0.00 | 0.00 | 83 | 1002.8 |
| 20260506084502 | 10 | 29 | 0.0 | 0.0 | 0.00 | 0.00 | 0.00 | 83 | 1002.9 |
| 20260506083001 | 10 | 284 | 1.6 | 0.0 | 0.00 | 0.00 | 0.00 | 83 | 1002.6 |
| 20260506081500 | 10 | 276 | 0.0 | 0.0 | 0.00 | 0.00 | 0.00 | 84 | 1002.7 |
| 20260506073000 | 10 | 240 | 0.0 | 0.0 | 0.00 | 0.00 | 0.00 | 85 | 1002.4 |
| 20260506071500 | 10 | 191 | 0.0 | 0.0 | 0.00 | 0.00 | 0.00 | 86 | 1002.3 |
| 20260506061500 | 8 | 257 | 0.0 | 0.0 | 0.00 | 0.00 | 0.00 | 90 | 1002.3 |
| 20260506044502 | 8 | 55 | 0.0 | 0.0 | 0.00 | 0.00 | 0.00 | 91 | 1001.9 |
| 20260506043002 | 8 | 244 | 0.0 | 0.0 | 0.00 | 0.00 | 0.00 | 91 | 1001.9 |
| 20260506041500 | 10 | 252 | 1.6 | 0.0 | 0.00 | 0.00 | 0.00 | 90 | 1002.0 |
| 20260506040002 | 10 | 116 | 1.6 | 0.0 | 0.00 | 0.00 | 0.00 | 89 | 1002.1 |
| 20260506034502 | 10 | 116 | 0.0 | 0.0 | 0.00 | 0.00 | 0.00 | 87 | 1001.8 |
| 20260506033001 | 10 | 244 | 0.0 | 0.0 | 0.00 | 0.00 | 0.00 | 88 | 1002.0 |
| 20260506031501 | 10 | 216 | 3.2 | 0.0 | 0.00 | 0.00 | 0.00 | 89 | 1002.0 |
| 20260506030002 | 10 | 247 | 0.0 | 0.0 | 0.00 | 0.00 | 0.00 | 89 | 1002.3 |